Hourly Weather Roundup
Issued by NWS

Home | Current Version | Previous Version | Text Only | Print | Product List | Glossary On
Versions: 1 2 3 4 5 6 7 8 9 10 11 12 13 14 15 16 17 18 19 20 21 22 23 24 25 26 27 28 29 30 31 32 33 34 35 36 37 38 39 40 41 42 43 44 45 46 47 48 49 50
038
NZUS43 KILX 080210
HWRCRS

CRS HOURLY WEATHER ROUNDUP
NATIONAL WEATHER SERVICE, LINCOLN IL
800 PM CST SUN FEB 07 2016


CITY           SKY/WX    TMP DP  RH WIND       PRES   REMARKS
CHAMPAIGN      CLOUDY    37  32  82 SW6       29.82F WCI  32
LAWRENCEVILLE  PTCLDY    43  31  62 W9        29.86S
PEORIA         CLEAR     39  26  59 NW8       29.82F WCI  33
SPRINGFIELD    CLOUDY    42  31  64 W21       29.86S WCI  33
$$


CITY           SKY/WX    TMP DP  RH WIND       PRES   REMARKS
BLOOMINGTON    MOCLDY    37  29  73 NW9       29.82F WCI  30
DECATUR        PTCLDY    42  31  64 SW6       29.83F
EFFINGHAM      CLOUDY    43  33  67 SW7       29.87F
FLORA          MOCLDY    46  32  57 NW6       29.86F
GALESBURG      CLEAR     35  27  74 SW5       29.81F WCI  31
JACKSONVILLE   CLOUDY    40  32  72 SW7       29.86F
LACON          CLEAR     35  26  71 SW3       29.80F
LINCOLN        CLOUDY    40  31  69 CALM      29.84S
LITCHFIELD     CLOUDY    39  33  77 NW9       29.87R WCI  33

CITY           SKY/WX    TMP DP  RH WIND       PRES   REMARKS
MACOMB         CLEAR     34  28  77 W8        29.85F WCI  27
MATTOON        CLOUDY    40  31  70 W6        29.83F
MOLINE         PTCLDY    34  26  72 SW7       29.78F WCI  28
OLNEY          PTCLDY    43  32  65 W6        29.86F
PARIS          PTCLDY    37  33  88 W7        29.84F WCI  31
PONTIAC        PTCLDY    36  31  83 W8        29.81F WCI  29
QUINCY         MOCLDY    36  30  79 W16G23    29.88S WCI  26
RANTOUL        CLOUDY    41  35  79 W9        29.82S WCI  35
ROBINSON       PTCLDY    41  31  68 W10       29.86F
TAYLORVILLE    MOCLDY    39  32  75 W12G23    29.85S WCI  32
TERRE HAUTE    CLOUDY    44  31  60 W10       29.84F
$$


CITY           SKY/WX    TMP DP  RH WIND       PRES   REMARKS
BURLINGTON     MOCLDY    37  28  70 W10G20    29.83R WCI  30
CHICAGO        PTCLDY    37  27  67 W12       29.74S WCI  29
DES MOINES     FLURRIES  36  29  75 NW21G33   29.85F WCI  25
EVANSVILLE     CLOUDY    48  30  49 SW8       29.86F
INDIANAPOLIS   CLOUDY    43  30  60 W10       29.80S
KANSAS CITY    CLOUDY    37  28  70 NW12G24   30.02R WCI  29
MILWAUKEE      PTCLDY    37  25  61 W12       29.68F WCI  29
ST LOUIS       NOT AVBL
$$





USA.gov is the U.S. government's official web portal to all federal, state and local government web resources and services.